| time (UTC) | temp C | wind direction | speed KPH | gust KPH | rain 1hr cm | rain 24hr cm | rain mn cm | humidity % | barometer mb |
| 20260505083722 | 17 | 26 | 4.8 | 9.7 | 0.00 | 0.00 | 0.00 | 73 | 1009.4 |
| 20260505082718 | 18 | 14 | 1.6 | 6.4 | 0.00 | 0.00 | 0.00 | 72 | 1009.3 |
| 20260505081735 | 17 | 19 | 3.2 | 6.4 | 0.00 | 0.00 | 0.00 | 75 | 1009.5 |
| 20260505080731 | 17 | 8 | 0.0 | 1.6 | 0.00 | 0.00 | 0.00 | 78 | 1009.5 |
| 20260505075728 | 16 | 11 | 0.0 | 1.6 | 0.00 | 0.00 | 0.00 | 81 | 1009.7 |
| 20260505074724 | 15 | 13 | 0.0 | 3.2 | 0.00 | 0.00 | 0.00 | 82 | 1009.7 |
| 20260505073720 | 15 | 0.0 | 0.0 | 0.00 | 0.00 | 0.00 | 84 | 1009.8 | |
| 20260505072717 | 15 | 13 | 1.6 | 3.2 | 0.00 | 0.00 | 0.00 | 85 | 1010.0 |
| 20260505071733 | 15 | 16 | 3.2 | 4.8 | 0.00 | 0.00 | 0.00 | 86 | 1010.0 |
| 20260505070730 | 15 | 18 | 3.2 | 4.8 | 0.00 | 0.00 | 0.00 | 87 | 1010.1 |
| 20260505065726 | 14 | 21 | 3.2 | 6.4 | 0.00 | 0.00 | 0.00 | 86 | 1010.0 |
| 20260505064723 | 14 | 16 | 3.2 | 4.8 | 0.00 | 0.00 | 0.00 | 87 | 1009.9 |
| 20260505063723 | 14 | 0.0 | 0.0 | 0.00 | 0.00 | 0.00 | 87 | 1009.9 | |
| 20260505062735 | 14 | 6 | 0.0 | 1.6 | 0.00 | 0.00 | 0.00 | 89 | 1010.0 |
| 20260505061732 | 13 | 7 | 0.0 | 3.2 | 0.00 | 0.00 | 0.00 | 90 | 1010.0 |
| 20260505060728 | 13 | 6 | 0.0 | 1.6 | 0.00 | 0.00 | 0.00 | 91 | 1010.0 |
| 20260505055724 | 13 | 6 | 0.0 | 1.6 | 0.00 | 0.00 | 0.00 | 93 | 1010.2 |
| 20260505054720 | 13 | 0.0 | 0.0 | 0.00 | 0.00 | 0.00 | 93 | 1010.1 | |
| 20260505053718 | 13 | 0.0 | 0.0 | 0.00 | 0.00 | 0.00 | 94 | 1010.0 | |
| 20260505052734 | 13 | 0.0 | 0.0 | 0.00 | 0.00 | 0.00 | 94 | 1010.0 | |
| 20260505051730 | 13 | 0.0 | 0.0 | 0.00 | 0.00 | 0.00 | 95 | 1010.0 | |
| 20260505050726 | 13 | 0.0 | 0.0 | 0.00 | 0.00 | 0.00 | 95 | 1009.9 | |
| 20260505041728 | 12 | 0.0 | 0.0 | 0.00 | 0.00 | 0.00 | 95 | 1010.2 | |
| 20260505040728 | 12 | 0.0 | 0.0 | 0.00 | 0.00 | 0.00 | 96 | 1010.2 | |
| 20260505035721 | 12 | 0.0 | 0.0 | 0.00 | 0.00 | 0.00 | 96 | 1010.3 | |
| 20260505034717 | 12 | 0.0 | 0.0 | 0.00 | 0.00 | 0.00 | 96 | 1010.3 | |
| 20260505033734 | 12 | 0.0 | 0.0 | 0.00 | 0.00 | 0.00 | 95 | 1010.4 | |
| 20260505032730 | 12 | 0.0 | 0.0 | 0.00 | 0.00 | 0.00 | 95 | 1010.5 | |
| 20260505031726 | 12 | 11 | 0.0 | 1.6 | 0.00 | 0.00 | 0.00 | 95 | 1010.6 |
| 20260505030723 | 12 | 11 | 1.6 | 1.6 | 0.00 | 0.00 | 0.00 | 95 | 1010.6 |
| 20260505025719 | 13 | 0.0 | 0.0 | 0.00 | 0.00 | 0.00 | 95 | 1010.7 | |
| 20260505024735 | 13 | 0.0 | 0.0 | 0.00 | 0.00 | 0.00 | 94 | 1010.9 | |
| 20260505023732 | 13 | 0.0 | 0.0 | 0.00 | 0.00 | 0.00 | 94 | 1010.9 | |
| 20260505022728 | 13 | 0.0 | 0.0 | 0.00 | 0.00 | 0.00 | 94 | 1011.2 | |
| 20260505021724 | 13 | 0.0 | 0.0 | 0.00 | 0.00 | 0.00 | 94 | 1011.2 | |
| 20260505020721 | 13 | 0.0 | 0.0 | 0.00 | 0.00 | 0.00 | 94 | 1011.2 | |
| 20260505015717 | 13 | 0.0 | 0.0 | 0.00 | 0.00 | 0.00 | 93 | 1011.3 | |
| 20260505014734 | 13 | 26 | 3.2 | 4.8 | 0.00 | 0.00 | 0.00 | 93 | 1011.2 |
| 20260505013730 | 13 | 340 | 0.0 | 1.6 | 0.00 | 0.00 | 0.00 | 92 | 1011.3 |
| 20260505012727 | 13 | 0.0 | 0.0 | 0.00 | 0.00 | 0.00 | 92 | 1011.2 | |
| 20260505011723 | 13 | 0.0 | 0.0 | 0.00 | 0.00 | 0.00 | 92 | 1011.3 | |
| 20260505010720 | 13 | 0.0 | 0.0 | 0.00 | 0.00 | 0.00 | 92 | 1011.4 | |
| 20260505005716 | 13 | 325 | 1.6 | 3.2 | 0.00 | 0.00 | 0.00 | 92 | 1011.5 |
| 20260505004732 | 13 | 0.0 | 0.0 | 0.00 | 0.00 | 0.00 | 92 | 1011.8 | |
| 20260505003732 | 13 | 273 | 0.0 | 1.6 | 0.00 | 0.00 | 0.00 | 92 | 1012.0 |
| 20260505002725 | 13 | 0.0 | 0.0 | 0.00 | 0.00 | 0.00 | 92 | 1012.1 | |
| 20260505001721 | 13 | 0.0 | 0.0 | 0.00 | 0.00 | 0.00 | 91 | 1012.1 | |
| 20260505000718 | 13 | 272 | 1.6 | 3.2 | 0.00 | 0.00 | 0.00 | 91 | 1012.3 |
| 20260504235735 | 14 | 41 | 3.2 | 3.2 | 0.00 | 0.00 | 0.00 | 89 | 1012.1 |
| 20260504234731 | 14 | 45 | 4.8 | 4.8 | 0.00 | 0.00 | 0.00 | 89 | 1012.3 |
| 20260504233727 | 14 | 295 | 1.6 | 3.2 | 0.00 | 0.00 | 0.00 | 88 | 1012.4 |
| 20260504232723 | 14 | 354 | 1.6 | 4.8 | 0.00 | 0.00 | 0.00 | 87 | 1012.5 |
| 20260504231719 | 15 | 337 | 6.4 | 9.7 | 0.00 | 0.00 | 0.00 | 87 | 1012.7 |
| 20260504230716 | 14 | 327 | 4.8 | 6.4 | 0.00 | 0.00 | 0.00 | 88 | 1012.5 |
| 20260504225732 | 14 | 332 | 4.8 | 6.4 | 0.00 | 0.00 | 0.00 | 88 | 1012.7 |
| 20260504224729 | 14 | 351 | 1.6 | 4.8 | 0.00 | 0.00 | 0.00 | 89 | 1012.7 |
| 20260504223725 | 14 | 342 | 3.2 | 6.4 | 0.00 | 0.00 | 0.00 | 90 | 1013.0 |
| 20260504222721 | 14 | 0.0 | 0.0 | 0.00 | 0.00 | 0.00 | 90 | 1013.1 | |
| 20260504221718 | 14 | 340 | 0.0 | 1.6 | 0.00 | 0.00 | 0.00 | 88 | 1013.2 |
| 20260504220737 | 14 | 0.0 | 0.0 | 0.00 | 0.00 | 0.00 | 87 | 1013.4 | |
| 20260504215731 | 15 | 334 | 3.2 | 6.4 | 0.00 | 0.00 | 0.00 | 87 | 1013.4 |
| 20260504214726 | 15 | 329 | 6.4 | 9.7 | 0.00 | 0.00 | 0.00 | 86 | 1013.4 |
| 20260504213723 | 15 | 327 | 8.0 | 9.7 | 0.00 | 0.00 | 0.00 | 86 | 1013.4 |
| 20260504212720 | 15 | 317 | 6.4 | 9.7 | 0.00 | 0.00 | 0.00 | 86 | 1013.6 |
| 20260504211716 | 15 | 317 | 6.4 | 9.7 | 0.00 | 0.00 | 0.00 | 84 | 1013.5 |
| 20260504210732 | 15 | 321 | 4.8 | 4.8 | 0.00 | 0.00 | 0.00 | 82 | 1013.5 |
| 20260504205729 | 15 | 325 | 3.2 | 4.8 | 0.00 | 0.00 | 0.00 | 82 | 1013.6 |
| 20260504204725 | 15 | 324 | 1.6 | 3.2 | 0.00 | 0.00 | 0.00 | 81 | 1013.5 |
| 20260504203721 | 15 | 320 | 4.8 | 6.4 | 0.00 | 0.00 | 0.00 | 81 | 1013.6 |
| 20260504202718 | 16 | 306 | 4.8 | 6.4 | 0.00 | 0.00 | 0.00 | 80 | 1013.6 |
| 20260504201734 | 16 | 298 | 6.4 | 9.7 | 0.00 | 0.00 | 0.00 | 77 | 1013.6 |
| 20260504200730 | 16 | 282 | 1.6 | 4.8 | 0.00 | 0.00 | 0.00 | 77 | 1013.4 |
| 20260504195727 | 16 | 275 | 0.0 | 1.6 | 0.00 | 0.00 | 0.00 | 78 | 1013.3 |
| 20260504194723 | 16 | 0.0 | 0.0 | 0.00 | 0.00 | 0.00 | 77 | 1013.0 | |
| 20260504193719 | 16 | 276 | 0.0 | 3.2 | 0.00 | 0.00 | 0.00 | 76 | 1012.7 |
| 20260504192735 | 16 | 0.0 | 0.0 | 0.00 | 0.00 | 0.00 | 75 | 1012.8 | |
| 20260504191732 | 16 | 333 | 0.0 | 1.6 | 0.00 | 0.00 | 0.00 | 73 | 1012.6 |
| 20260504190731 | 16 | 338 | 1.6 | 3.2 | 0.00 | 0.00 | 0.00 | 74 | 1012.6 |
| 20260504185725 | 16 | 325 | 3.2 | 4.8 | 0.00 | 0.00 | 0.00 | 75 | 1012.6 |
| 20260504184726 | 17 | 269 | 0.0 | 1.6 | 0.00 | 0.00 | 0.00 | 72 | 1012.8 |
| 20260504183721 | 17 | 200 | 1.6 | 3.2 | 0.00 | 0.00 | 0.00 | 72 | 1012.8 |
| 20260504182734 | 17 | 314 | 3.2 | 6.4 | 0.00 | 0.00 | 0.00 | 70 | 1012.8 |
| 20260504181730 | 17 | 259 | 1.6 | 3.2 | 0.00 | 0.00 | 0.00 | 71 | 1012.7 |
| 20260504180726 | 17 | 6 | 4.8 | 16.1 | 0.00 | 0.00 | 0.00 | 70 | 1012.5 |
| 20260504175722 | 17 | 341 | 4.8 | 11.3 | 0.00 | 0.00 | 0.00 | 70 | 1012.4 |
| 20260504174719 | 17 | 345 | 4.8 | 9.7 | 0.00 | 0.00 | 0.00 | 71 | 1012.5 |
| 20260504173736 | 18 | 345 | 6.4 | 22.5 | 0.00 | 0.00 | 0.00 | 69 | 1012.6 |
| 20260504172735 | 18 | 336 | 12.9 | 20.9 | 0.00 | 0.00 | 0.00 | 68 | 1012.7 |
| 20260504171728 | 18 | 340 | 9.7 | 20.9 | 0.00 | 0.00 | 0.00 | 69 | 1012.6 |
| 20260504170725 | 18 | 331 | 14.5 | 20.9 | 0.00 | 0.00 | 0.00 | 67 | 1012.6 |
| 20260504150723 | 20 | 236 | 6.4 | 11.3 | 0.00 | 0.00 | 0.00 | 55 | 1012.8 |
| 20260504140722 | 21 | 248 | 8.0 | 11.3 | 0.00 | 0.00 | 0.00 | 54 | 1013.1 |
| 20260504130720 | 21 | 221 | 8.0 | 12.9 | 0.00 | 0.00 | 0.00 | 53 | 1013.2 |
| 20260504110717 | 20 | 235 | 4.8 | 11.3 | 0.00 | 0.00 | 0.00 | 51 | 1013.9 |